sat.trackr.live / text

‹ back to catalog

STARLINK-3305

NORAD 50166 · 2021-125L

PAYLOAD ACTIVE UNKNOWN

§ Identity

Operator
Country
US
Launch date
2021-12-18
Launch site
AFWTR
Launch vehicle
Mass (kg)
RCS (m²)

Purposes: comms

External: N2YO · Heavens-Above · Gunter

§ Orbital elements

Epoch: 2026-05-24T18:01:22.593216Z

Period
95.44 min
Inclination
53.2150°
Eccentricity
0.0001413
Mean motion
15.08837797 rev/d
Perigee alt
538.8 km
Apogee alt
540.7 km
Semi-major
6,917.9 km
B*
5.5255e-5
RAAN
267.6010°
Arg perigee
80.8879°
Mean anomaly
279.2273°
Rev number
24,807

§ Raw data

STARLINK-33051 50166U 21125L   26144.75095594  .00000592  00000+0  55255-4 0  99912 50166  53.2150 267.6010 0001413  80.8879 279.2273 15.08837797248075

JSON: /api/v1/satellites/50166 · /tle

For live sub-satellite position, see the globe view (requires WebGL).

§ Visibility from observer

Set your observer location to see the next 7 days of passes ≥ 10°. The values pass through the URL so the page stays shareable.

No JS? Fill the form by hand. The geolocation button needs JavaScript.